Year,Month,Day,Hour,Minute,Value (Times are PST for temperature in C)
2009,08,27,00,00,11.10
2009,08,27,00,01,11.10
2009,08,27,00,02,11.10
2009,08,27,00,03,11.10
2009,08,27,00,04,11.00
2009,08,27,00,05,11.00
2009,08,27,00,06,11.00
2009,08,27,00,07,11.00
2009,08,27,00,08,11.00
2009,08,27,00,09,11.00
2009,08,27,00,10,11.00
2009,08,27,00,11,10.90
2009,08,27,00,12,10.90
2009,08,27,00,13,10.90
2009,08,27,00,14,10.90
2009,08,27,00,15,10.90
2009,08,27,00,16,10.90
2009,08,27,00,17,10.80
2009,08,27,00,18,10.80
2009,08,27,00,19,10.80
2009,08,27,00,20,10.80
2009,08,27,00,21,10.80
2009,08,27,00,22,10.70
2009,08,27,00,23,10.70
2009,08,27,00,24,10.70
2009,08,27,00,25,10.70
2009,08,27,00,26,10.60
2009,08,27,00,27,10.60
2009,08,27,00,28,10.60
2009,08,27,00,29,10.60
2009,08,27,00,30,10.60
2009,08,27,00,31,10.50
2009,08,27,00,32,10.50
2009,08,27,00,33,10.50
2009,08,27,00,34,10.50
2009,08,27,00,35,10.50
2009,08,27,00,36,10.50
2009,08,27,00,37,10.50
2009,08,27,00,38,10.60
2009,08,27,00,39,10.60
2009,08,27,00,40,10.60
2009,08,27,00,41,10.60
2009,08,27,00,42,10.60
2009,08,27,00,43,10.60
2009,08,27,00,44,10.50
2009,08,27,00,45,10.50
2009,08,27,00,46,10.50
2009,08,27,00,47,10.50
2009,08,27,00,48,10.50
2009,08,27,00,49,10.50
2009,08,27,00,50,10.40
2009,08,27,00,51,10.40
2009,08,27,00,52,10.40
2009,08,27,00,53,10.40
2009,08,27,00,54,10.40
2009,08,27,00,55,10.30
2009,08,27,00,56,10.30
2009,08,27,00,57,10.30
2009,08,27,00,58,10.30
2009,08,27,00,59,10.30
2009,08,27,01,00,10.30
2009,08,27,01,01,10.20
2009,08,27,01,02,10.20
2009,08,27,01,03,10.20
2009,08,27,01,04,10.20
2009,08,27,01,05,10.20
2009,08,27,01,06,10.10
2009,08,27,01,07,10.10
2009,08,27,01,08,10.10
2009,08,27,01,09,10.10
2009,08,27,01,10,10.10
2009,08,27,01,11,10.10
2009,08,27,01,12,10.10
2009,08,27,01,13,10.10
2009,08,27,01,14,10.20
2009,08,27,01,15,10.20
2009,08,27,01,16,10.20
2009,08,27,01,17,10.30
2009,08,27,01,18,10.30
2009,08,27,01,19,10.30
2009,08,27,01,20,10.30
2009,08,27,01,21,10.40
2009,08,27,01,22,10.40
2009,08,27,01,23,10.40
2009,08,27,01,24,10.30
2009,08,27,01,25,10.30
2009,08,27,01,26,10.30
2009,08,27,01,27,10.30
2009,08,27,01,28,10.30
2009,08,27,01,29,10.30
2009,08,27,01,30,10.30
2009,08,27,01,31,10.30
2009,08,27,01,32,10.30
2009,08,27,01,33,10.30
2009,08,27,01,34,10.30
2009,08,27,01,35,10.30
2009,08,27,01,36,10.30
2009,08,27,01,37,10.30
2009,08,27,01,38,10.30
2009,08,27,01,39,10.30
2009,08,27,01,40,10.30
2009,08,27,01,41,10.30
2009,08,27,01,42,10.30
2009,08,27,01,43,10.30
2009,08,27,01,44,10.30
2009,08,27,01,45,10.30
2009,08,27,01,46,10.30
2009,08,27,01,47,10.30
2009,08,27,01,48,10.40
2009,08,27,01,49,10.40
2009,08,27,01,50,10.40
2009,08,27,01,51,10.40
2009,08,27,01,52,10.50
2009,08,27,01,53,10.50
2009,08,27,01,54,10.50
2009,08,27,01,55,10.50
2009,08,27,01,56,10.50
2009,08,27,01,57,10.50
2009,08,27,01,58,10.50
2009,08,27,01,59,10.50
2009,08,27,02,00,10.50
2009,08,27,02,01,10.40
2009,08,27,02,02,10.40
2009,08,27,02,03,10.30
2009,08,27,02,04,10.30
2009,08,27,02,05,10.30
2009,08,27,02,06,10.20
2009,08,27,02,07,10.20
2009,08,27,02,08,10.10
2009,08,27,02,09,10.10
2009,08,27,02,10,10.10
2009,08,27,02,11,10.00
2009,08,27,02,12,10.00
2009,08,27,02,13,9.90
2009,08,27,02,14,9.90
2009,08,27,02,15,9.90
2009,08,27,02,16,9.90
2009,08,27,02,17,9.80
2009,08,27,02,18,9.80
2009,08,27,02,19,9.80
2009,08,27,02,20,9.80
2009,08,27,02,21,9.80
2009,08,27,02,22,9.80
2009,08,27,02,23,9.80
2009,08,27,02,24,9.80
2009,08,27,02,25,9.80
2009,08,27,02,26,9.80
2009,08,27,02,27,9.80
2009,08,27,02,28,9.80
2009,08,27,02,29,9.80
2009,08,27,02,30,9.80
2009,08,27,02,31,9.70
2009,08,27,02,32,9.70
2009,08,27,02,33,9.70
2009,08,27,02,34,9.70
2009,08,27,02,35,9.70
2009,08,27,02,36,9.70
2009,08,27,02,37,9.70
2009,08,27,02,38,9.70
2009,08,27,02,39,9.70
2009,08,27,02,40,9.60
2009,08,27,02,41,9.60
2009,08,27,02,42,9.60
2009,08,27,02,43,9.60
2009,08,27,02,44,9.60
2009,08,27,02,45,9.60
2009,08,27,02,46,9.50
2009,08,27,02,47,9.50
2009,08,27,02,48,9.50
2009,08,27,02,49,9.50
2009,08,27,02,50,9.40
2009,08,27,02,51,9.40
2009,08,27,02,52,9.40
2009,08,27,02,53,9.40
2009,08,27,02,54,9.40
2009,08,27,02,55,9.40
2009,08,27,02,56,9.30
2009,08,27,02,57,9.30
2009,08,27,02,58,9.30
2009,08,27,02,59,9.30
2009,08,27,03,00,9.30
2009,08,27,03,01,9.30
2009,08,27,03,02,9.20
2009,08,27,03,03,9.20
2009,08,27,03,04,9.20
2009,08,27,03,05,9.20
2009,08,27,03,06,9.20
2009,08,27,03,07,9.20
2009,08,27,03,08,9.20
2009,08,27,03,09,9.20
2009,08,27,03,10,9.10
2009,08,27,03,11,9.10
2009,08,27,03,12,9.10
2009,08,27,03,13,9.10
2009,08,27,03,14,9.10
2009,08,27,03,15,9.10
2009,08,27,03,16,9.10
2009,08,27,03,17,9.10
2009,08,27,03,18,9.10
2009,08,27,03,19,9.10
2009,08,27,03,20,9.10
2009,08,27,03,21,9.10
2009,08,27,03,22,9.10
2009,08,27,03,23,9.10
2009,08,27,03,24,9.10
2009,08,27,03,25,9.10
2009,08,27,03,26,9.10
2009,08,27,03,27,9.10
2009,08,27,03,28,9.10
2009,08,27,03,29,9.10
2009,08,27,03,30,9.10
2009,08,27,03,31,9.10
2009,08,27,03,32,9.10
2009,08,27,03,33,9.10
2009,08,27,03,34,9.10
2009,08,27,03,35,9.10
2009,08,27,03,36,9.00
2009,08,27,03,37,9.00
2009,08,27,03,38,9.00
2009,08,27,03,39,9.00
2009,08,27,03,40,8.90
2009,08,27,03,41,8.90
2009,08,27,03,42,8.90
2009,08,27,03,43,8.90
2009,08,27,03,44,8.90
2009,08,27,03,45,8.80
2009,08,27,03,46,8.80
2009,08,27,03,47,8.80
2009,08,27,03,48,8.80
2009,08,27,03,49,8.80
2009,08,27,03,50,8.80
2009,08,27,03,51,8.80
2009,08,27,03,52,8.70
2009,08,27,03,53,8.70
2009,08,27,03,54,8.70
2009,08,27,03,55,8.70
2009,08,27,03,56,8.70
2009,08,27,03,57,8.70
2009,08,27,03,58,8.70
2009,08,27,03,59,8.70
2009,08,27,04,00,8.70
2009,08,27,04,01,8.70
2009,08,27,04,02,8.70
2009,08,27,04,03,8.70
2009,08,27,04,04,8.70
2009,08,27,04,05,8.70
2009,08,27,04,06,8.70
2009,08,27,04,07,8.70
2009,08,27,04,08,8.70
2009,08,27,04,09,8.70
2009,08,27,04,10,8.70
2009,08,27,04,11,8.70
2009,08,27,04,12,8.70
2009,08,27,04,13,8.80
2009,08,27,04,14,8.80
2009,08,27,04,15,8.80
2009,08,27,04,16,8.80
2009,08,27,04,17,8.80
2009,08,27,04,18,8.80
2009,08,27,04,19,8.80
2009,08,27,04,20,8.70
2009,08,27,04,21,8.70
2009,08,27,04,22,8.70
2009,08,27,04,23,8.70
2009,08,27,04,24,8.60
2009,08,27,04,25,8.60
2009,08,27,04,26,8.60
2009,08,27,04,27,8.60
2009,08,27,04,28,8.60
2009,08,27,04,29,8.60
2009,08,27,04,30,8.60
2009,08,27,04,31,8.60
2009,08,27,04,32,8.60
2009,08,27,04,33,8.60
2009,08,27,04,34,8.60
2009,08,27,04,35,8.60
2009,08,27,04,36,8.60
2009,08,27,04,37,8.50
2009,08,27,04,38,8.50
2009,08,27,04,39,8.50
2009,08,27,04,40,8.50
2009,08,27,04,41,8.50
2009,08,27,04,42,8.40
2009,08,27,04,43,8.40
2009,08,27,04,44,8.40
2009,08,27,04,45,8.40
2009,08,27,04,46,8.40
2009,08,27,04,47,8.40
2009,08,27,04,48,8.30
2009,08,27,04,49,8.30
2009,08,27,04,50,8.30
2009,08,27,04,51,8.30
2009,08,27,04,52,8.30
2009,08,27,04,53,8.30
2009,08,27,04,54,8.30
2009,08,27,04,55,8.40
2009,08,27,04,56,8.40
2009,08,27,04,57,8.40
2009,08,27,04,58,8.40
2009,08,27,04,59,8.40
2009,08,27,05,00,8.40
2009,08,27,05,01,8.40
2009,08,27,05,02,8.40
2009,08,27,05,03,8.40
2009,08,27,05,04,8.40
2009,08,27,05,05,8.40
2009,08,27,05,06,8.40
2009,08,27,05,07,8.40
2009,08,27,05,08,8.40
2009,08,27,05,09,8.40
2009,08,27,05,10,8.40
2009,08,27,05,11,8.40
2009,08,27,05,12,8.30
2009,08,27,05,13,8.30
2009,08,27,05,14,8.30
2009,08,27,05,15,8.30
2009,08,27,05,16,8.30
2009,08,27,05,17,8.30
2009,08,27,05,18,8.30
2009,08,27,05,19,8.30
2009,08,27,05,20,8.30
2009,08,27,05,21,8.30
2009,08,27,05,22,8.30
2009,08,27,05,23,8.30
2009,08,27,05,24,8.30
2009,08,27,05,25,8.30
2009,08,27,05,26,8.30
2009,08,27,05,27,8.30
2009,08,27,05,28,8.30
2009,08,27,05,29,8.30
2009,08,27,05,30,8.30
2009,08,27,05,31,8.30
2009,08,27,05,32,8.30
2009,08,27,05,33,8.30
2009,08,27,05,34,8.30
2009,08,27,05,35,8.30
2009,08,27,05,36,8.30
2009,08,27,05,37,8.30
2009,08,27,05,38,8.30
2009,08,27,05,39,8.30
2009,08,27,05,40,8.30
2009,08,27,05,41,8.30
2009,08,27,05,42,8.30
2009,08,27,05,43,8.30
2009,08,27,05,44,8.30
2009,08,27,05,45,8.30
2009,08,27,05,46,8.30
2009,08,27,05,47,8.20
2009,08,27,05,48,8.20
2009,08,27,05,49,8.20
2009,08,27,05,50,8.20
2009,08,27,05,51,8.20
2009,08,27,05,52,8.20
2009,08,27,05,53,8.20
2009,08,27,05,54,8.20
2009,08,27,05,55,8.20
2009,08,27,05,56,8.20
2009,08,27,05,57,8.20
2009,08,27,05,58,8.20
2009,08,27,05,59,8.20
2009,08,27,06,00,8.20
2009,08,27,06,01,8.20
2009,08,27,06,02,8.10
2009,08,27,06,03,8.10
2009,08,27,06,04,8.10
2009,08,27,06,05,8.10
2009,08,27,06,06,8.10
2009,08,27,06,07,8.20
2009,08,27,06,08,8.20
2009,08,27,06,09,8.20
2009,08,27,06,10,8.20
2009,08,27,06,11,8.20
2009,08,27,06,12,8.20
2009,08,27,06,13,8.20
2009,08,27,06,14,8.10
2009,08,27,06,15,8.10
2009,08,27,06,16,8.10
2009,08,27,06,17,8.10
2009,08,27,06,18,8.10
2009,08,27,06,19,8.10
2009,08,27,06,20,8.10
2009,08,27,06,21,8.20
2009,08,27,06,22,8.20
2009,08,27,06,23,8.20
2009,08,27,06,24,8.20
2009,08,27,06,25,8.20
2009,08,27,06,26,8.20
2009,08,27,06,27,8.20
2009,08,27,06,28,8.20
2009,08,27,06,29,8.20
2009,08,27,06,30,8.20
2009,08,27,06,31,8.20
2009,08,27,06,32,8.20
2009,08,27,06,33,8.20
2009,08,27,06,34,8.20
2009,08,27,06,35,8.20
2009,08,27,06,36,8.20
2009,08,27,06,37,8.20
2009,08,27,06,38,8.20
2009,08,27,06,39,8.20
2009,08,27,06,40,8.20
2009,08,27,06,41,8.20
2009,08,27,06,42,8.20
2009,08,27,06,43,8.20
2009,08,27,06,44,8.20
2009,08,27,06,45,8.20
2009,08,27,06,46,8.20
2009,08,27,06,47,8.10
2009,08,27,06,48,8.10
2009,08,27,06,49,8.10
2009,08,27,06,50,8.10
2009,08,27,06,51,8.20
2009,08,27,06,52,8.20
2009,08,27,06,53,8.20
2009,08,27,06,54,8.20
2009,08,27,06,55,8.30
2009,08,27,06,56,8.30
2009,08,27,06,57,8.30
2009,08,27,06,58,8.30
2009,08,27,06,59,8.30
2009,08,27,07,00,8.30
2009,08,27,07,01,8.30
2009,08,27,07,02,8.30
2009,08,27,07,03,8.40
2009,08,27,07,04,8.40
2009,08,27,07,05,8.40
2009,08,27,07,06,8.50
2009,08,27,07,07,8.50
2009,08,27,07,08,8.60
2009,08,27,07,09,8.60
2009,08,27,07,10,8.70
2009,08,27,07,11,8.70
2009,08,27,07,12,8.80
2009,08,27,07,13,8.80
2009,08,27,07,14,8.90
2009,08,27,07,15,8.90
2009,08,27,07,16,9.00
2009,08,27,07,17,9.00
2009,08,27,07,18,9.10
2009,08,27,07,19,9.10
2009,08,27,07,20,9.20
2009,08,27,07,21,9.20
2009,08,27,07,22,9.20
2009,08,27,07,23,9.30
2009,08,27,07,24,9.30
2009,08,27,07,25,9.40
2009,08,27,07,26,9.40
2009,08,27,07,27,9.50
2009,08,27,07,28,9.60
2009,08,27,07,29,9.60
2009,08,27,07,30,9.70
2009,08,27,07,31,9.80
2009,08,27,07,32,9.80
2009,08,27,07,33,9.90
2009,08,27,07,34,10.00
2009,08,27,07,35,10.00
2009,08,27,07,36,10.10
2009,08,27,07,37,10.20
2009,08,27,07,38,10.20
2009,08,27,07,39,10.30
2009,08,27,07,40,10.30
2009,08,27,07,41,10.40
2009,08,27,07,42,10.50
2009,08,27,07,43,10.60
2009,08,27,07,44,10.60
2009,08,27,07,45,10.70
2009,08,27,07,46,10.80
2009,08,27,07,47,10.80
2009,08,27,07,48,10.90
2009,08,27,07,49,11.00
2009,08,27,07,50,11.10
2009,08,27,07,51,11.10
2009,08,27,07,52,11.20
2009,08,27,07,53,11.30
2009,08,27,07,54,11.40
2009,08,27,07,55,11.40
2009,08,27,07,56,11.50
2009,08,27,07,57,11.60
2009,08,27,07,58,11.60
2009,08,27,07,59,11.70
2009,08,27,08,00,11.80
2009,08,27,08,01,11.90
2009,08,27,08,02,12.00
2009,08,27,08,03,12.00
2009,08,27,08,04,12.10
2009,08,27,08,05,12.20
2009,08,27,08,06,12.30
2009,08,27,08,07,12.40
2009,08,27,08,08,12.60
2009,08,27,08,09,12.80
2009,08,27,08,10,12.90
2009,08,27,08,11,13.00
2009,08,27,08,12,13.20
2009,08,27,08,13,13.30
2009,08,27,08,14,13.50
2009,08,27,08,15,13.70
2009,08,27,08,16,13.80
2009,08,27,08,17,14.00
2009,08,27,08,18,14.10
2009,08,27,08,19,14.20
2009,08,27,08,20,14.30
2009,08,27,08,21,14.50
2009,08,27,08,22,14.60
2009,08,27,08,23,14.80
2009,08,27,08,24,14.90
2009,08,27,08,25,15.10
2009,08,27,08,26,15.20
2009,08,27,08,27,15.40
2009,08,27,08,28,15.60
2009,08,27,08,29,15.70
2009,08,27,08,30,15.90
2009,08,27,08,31,16.10
2009,08,27,08,32,16.20
2009,08,27,08,33,16.30
2009,08,27,08,34,16.40
2009,08,27,08,35,16.40
2009,08,27,08,36,16.40
2009,08,27,08,37,16.50
2009,08,27,08,38,16.50
2009,08,27,08,39,16.50
2009,08,27,08,40,16.60
2009,08,27,08,41,16.60
2009,08,27,08,42,16.60
2009,08,27,08,43,16.60
2009,08,27,08,44,16.60
2009,08,27,08,45,16.60
2009,08,27,08,46,16.60
2009,08,27,08,47,16.60
2009,08,27,08,48,16.60
2009,08,27,08,49,16.60
2009,08,27,08,50,16.60
2009,08,27,08,51,16.70
2009,08,27,08,52,16.70
2009,08,27,08,53,16.70
2009,08,27,08,54,16.70
2009,08,27,08,55,16.70
2009,08,27,08,56,16.70
2009,08,27,08,57,16.80
2009,08,27,08,58,16.80
2009,08,27,08,59,16.80
2009,08,27,09,00,16.90
2009,08,27,09,01,17.00
2009,08,27,09,02,17.00
2009,08,27,09,03,17.10
2009,08,27,09,04,17.20
2009,08,27,09,05,17.20
2009,08,27,09,06,17.30
2009,08,27,09,07,17.30
2009,08,27,09,08,17.40
2009,08,27,09,09,17.50
2009,08,27,09,10,17.60
2009,08,27,09,11,17.60
2009,08,27,09,12,17.70
2009,08,27,09,13,17.80
2009,08,27,09,14,17.90
2009,08,27,09,15,17.90
2009,08,27,09,16,18.00
2009,08,27,09,17,18.10
2009,08,27,09,18,18.20
2009,08,27,09,19,18.30
2009,08,27,09,20,18.30
2009,08,27,09,21,18.40
2009,08,27,09,22,18.40
2009,08,27,09,23,18.40
2009,08,27,09,24,18.50
2009,08,27,09,25,18.50
2009,08,27,09,26,18.60
2009,08,27,09,27,18.60
2009,08,27,09,28,18.70
2009,08,27,09,29,18.70
2009,08,27,09,30,18.80
2009,08,27,09,31,18.80
2009,08,27,09,32,18.90
2009,08,27,09,33,19.00
2009,08,27,09,34,19.10
2009,08,27,09,35,19.20
2009,08,27,09,36,19.30
2009,08,27,09,37,19.30
2009,08,27,09,38,19.30
2009,08,27,09,39,19.40
2009,08,27,09,40,19.40
2009,08,27,09,41,19.40
2009,08,27,09,42,19.40
2009,08,27,09,43,19.40
2009,08,27,09,44,19.40
2009,08,27,09,45,19.50
2009,08,27,09,46,19.50
2009,08,27,09,47,19.60
2009,08,27,09,48,19.60
2009,08,27,09,49,19.70
2009,08,27,09,50,19.70
2009,08,27,09,51,19.70
2009,08,27,09,52,19.70
2009,08,27,09,53,19.70
2009,08,27,09,54,19.70
2009,08,27,09,55,19.70
2009,08,27,09,56,19.80
2009,08,27,09,57,19.80
2009,08,27,09,58,19.90
2009,08,27,09,59,19.90
2009,08,27,10,00,20.00
2009,08,27,10,01,20.00
2009,08,27,10,02,20.00
2009,08,27,10,03,20.10
2009,08,27,10,04,20.10
2009,08,27,10,05,20.10
2009,08,27,10,06,20.10
2009,08,27,10,07,20.10
2009,08,27,10,08,20.20
2009,08,27,10,09,20.20
2009,08,27,10,10,20.30
2009,08,27,10,11,20.30
2009,08,27,10,12,20.40
2009,08,27,10,13,20.40
2009,08,27,10,14,20.40
2009,08,27,10,15,20.50
2009,08,27,10,16,20.60
2009,08,27,10,17,20.70
2009,08,27,10,18,20.80
2009,08,27,10,19,20.90
2009,08,27,10,20,20.90
2009,08,27,10,21,21.00
2009,08,27,10,22,21.00
2009,08,27,10,23,21.00
2009,08,27,10,24,21.00
2009,08,27,10,25,21.00
2009,08,27,10,26,21.00
2009,08,27,10,27,21.00
2009,08,27,10,28,21.00
2009,08,27,10,29,21.00
2009,08,27,10,30,21.10
2009,08,27,10,31,21.10
2009,08,27,10,32,21.10
2009,08,27,10,33,21.10
2009,08,27,10,34,21.10
2009,08,27,10,35,21.10
2009,08,27,10,36,21.20
2009,08,27,10,37,21.10
2009,08,27,10,38,21.10
2009,08,27,10,39,21.10
2009,08,27,10,40,21.10
2009,08,27,10,41,21.10
2009,08,27,10,42,21.20
2009,08,27,10,43,21.20
2009,08,27,10,44,21.30
2009,08,27,10,45,21.30
2009,08,27,10,46,21.40
2009,08,27,10,47,21.40
2009,08,27,10,48,21.50
2009,08,27,10,49,21.50
2009,08,27,10,50,21.60
2009,08,27,10,51,21.70
2009,08,27,10,52,21.80
2009,08,27,10,53,21.80
2009,08,27,10,54,21.80
2009,08,27,10,55,21.90
2009,08,27,10,56,21.90
2009,08,27,10,57,22.00
2009,08,27,10,58,22.00
2009,08,27,10,59,22.00
2009,08,27,11,00,22.00
2009,08,27,11,01,22.00
2009,08,27,11,02,21.90
2009,08,27,11,03,21.90
2009,08,27,11,04,21.90
2009,08,27,11,05,21.90
2009,08,27,11,06,21.90
2009,08,27,11,07,21.90
2009,08,27,11,08,21.90
2009,08,27,11,09,21.90
2009,08,27,11,10,22.00
2009,08,27,11,11,22.10
2009,08,27,11,12,22.10
2009,08,27,11,13,22.20
2009,08,27,11,14,22.20
2009,08,27,11,15,22.20
2009,08,27,11,16,22.20
2009,08,27,11,17,22.30
2009,08,27,11,18,22.30
2009,08,27,11,19,22.40
2009,08,27,11,20,22.40
2009,08,27,11,21,22.50
2009,08,27,11,22,22.50
2009,08,27,11,23,22.50
2009,08,27,11,24,22.60
2009,08,27,11,25,22.60
2009,08,27,11,26,22.50
2009,08,27,11,27,22.60
2009,08,27,11,28,22.60
2009,08,27,11,29,22.60
2009,08,27,11,30,22.60
2009,08,27,11,31,22.60
2009,08,27,11,32,22.70
2009,08,27,11,33,22.70
2009,08,27,11,34,22.80
2009,08,27,11,35,22.80
2009,08,27,11,36,22.80
2009,08,27,11,37,22.90
2009,08,27,11,38,23.00
2009,08,27,11,39,23.00
2009,08,27,11,40,23.10
2009,08,27,11,41,23.10
2009,08,27,11,42,23.20
2009,08,27,11,43,23.20
2009,08,27,11,44,23.30
2009,08,27,11,45,23.30
2009,08,27,11,46,23.40
2009,08,27,11,47,23.40
2009,08,27,11,48,23.40
2009,08,27,11,49,23.50
2009,08,27,11,50,23.60
2009,08,27,11,51,23.60
2009,08,27,11,52,23.70
2009,08,27,11,53,23.70
2009,08,27,11,54,23.80
2009,08,27,11,55,23.80
2009,08,27,11,56,23.80
2009,08,27,11,57,23.90
2009,08,27,11,58,23.90
2009,08,27,11,59,23.90
2009,08,27,12,00,23.80
2009,08,27,12,01,23.80
2009,08,27,12,02,23.80
2009,08,27,12,03,23.80
2009,08,27,12,04,23.80
2009,08,27,12,05,23.80
2009,08,27,12,06,23.80
2009,08,27,12,07,23.80
2009,08,27,12,08,23.90
2009,08,27,12,09,24.00
2009,08,27,12,10,24.10
2009,08,27,12,11,24.20
2009,08,27,12,12,24.20
2009,08,27,12,13,24.30
2009,08,27,12,14,24.30
2009,08,27,12,15,24.20
2009,08,27,12,16,24.20
2009,08,27,12,17,24.20
2009,08,27,12,18,24.20
2009,08,27,12,19,24.30
2009,08,27,12,20,24.30
2009,08,27,12,21,24.30
2009,08,27,12,22,24.30
2009,08,27,12,23,24.30
2009,08,27,12,24,24.40
2009,08,27,12,25,24.40
2009,08,27,12,26,24.50
2009,08,27,12,27,24.50
2009,08,27,12,28,24.50
2009,08,27,12,29,24.50
2009,08,27,12,30,24.40
2009,08,27,12,31,24.40
2009,08,27,12,32,24.40
2009,08,27,12,33,24.40
2009,08,27,12,34,24.40
2009,08,27,12,35,24.40
2009,08,27,12,36,24.50
2009,08,27,12,37,24.50
2009,08,27,12,38,24.60
2009,08,27,12,39,24.60
2009,08,27,12,40,24.60
2009,08,27,12,41,24.60
2009,08,27,12,42,24.60
2009,08,27,12,43,24.60
2009,08,27,12,44,24.60
2009,08,27,12,45,24.60
2009,08,27,12,46,24.60
2009,08,27,12,47,24.50
2009,08,27,12,48,24.50
2009,08,27,12,49,24.50
2009,08,27,12,50,24.40
2009,08,27,12,51,24.40
2009,08,27,12,52,24.40
2009,08,27,12,53,24.40
2009,08,27,12,54,24.50
2009,08,27,12,55,24.50
2009,08,27,12,56,24.50
2009,08,27,12,57,24.60
2009,08,27,12,58,24.70
2009,08,27,12,59,24.70
2009,08,27,13,00,24.80
2009,08,27,13,01,24.80
2009,08,27,13,02,24.70
2009,08,27,13,03,24.70
2009,08,27,13,04,24.70
2009,08,27,13,05,24.70
2009,08,27,13,06,24.70
2009,08,27,13,07,24.80
2009,08,27,13,08,24.80
2009,08,27,13,09,24.90
2009,08,27,13,10,24.90
2009,08,27,13,11,24.90
2009,08,27,13,12,24.90
2009,08,27,13,13,24.90
2009,08,27,13,14,24.90
2009,08,27,13,15,24.90
2009,08,27,13,16,24.90
2009,08,27,13,17,24.90
2009,08,27,13,18,24.90
2009,08,27,13,19,24.90
2009,08,27,13,20,24.80
2009,08,27,13,21,24.80
2009,08,27,13,22,24.80
2009,08,27,13,23,24.70
2009,08,27,13,24,24.70
2009,08,27,13,25,24.70
2009,08,27,13,26,24.80
2009,08,27,13,27,24.80
2009,08,27,13,28,24.80
2009,08,27,13,29,24.80
2009,08,27,13,30,24.80
2009,08,27,13,31,24.90
2009,08,27,13,32,24.90
2009,08,27,13,33,25.00
2009,08,27,13,34,25.00
2009,08,27,13,35,25.10
2009,08,27,13,36,25.10
2009,08,27,13,37,25.10
2009,08,27,13,38,25.20
2009,08,27,13,39,25.20
2009,08,27,13,40,25.30
2009,08,27,13,41,25.30
2009,08,27,13,42,25.30
2009,08,27,13,43,25.30
2009,08,27,13,44,25.30
2009,08,27,13,45,25.30
2009,08,27,13,46,25.30
2009,08,27,13,47,25.30
2009,08,27,13,48,25.30
2009,08,27,13,49,25.30
2009,08,27,13,50,25.40
2009,08,27,13,51,25.40
2009,08,27,13,52,25.50
2009,08,27,13,53,25.50
2009,08,27,13,54,25.60
2009,08,27,13,55,25.60
2009,08,27,13,56,25.70
2009,08,27,13,57,25.70
2009,08,27,13,58,25.70
2009,08,27,13,59,25.70
2009,08,27,14,00,25.80
2009,08,27,14,01,25.80
2009,08,27,14,02,25.80
2009,08,27,14,03,25.80
2009,08,27,14,04,25.80
2009,08,27,14,05,25.90
2009,08,27,14,06,25.90
2009,08,27,14,07,25.90
2009,08,27,14,08,25.90
2009,08,27,14,09,25.90
2009,08,27,14,10,26.00
2009,08,27,14,11,26.00
2009,08,27,14,12,26.10
2009,08,27,14,13,26.10
2009,08,27,14,14,26.10
2009,08,27,14,15,26.10
2009,08,27,14,16,26.20
2009,08,27,14,17,26.20
2009,08,27,14,18,26.20
2009,08,27,14,19,26.30
2009,08,27,14,20,26.30
2009,08,27,14,21,26.40
2009,08,27,14,22,26.40
2009,08,27,14,23,26.30
2009,08,27,14,24,26.30
2009,08,27,14,25,26.30
2009,08,27,14,26,26.30
2009,08,27,14,27,26.30
2009,08,27,14,28,26.30
2009,08,27,14,29,26.30
2009,08,27,14,30,26.30
2009,08,27,14,31,26.30
2009,08,27,14,32,26.30
2009,08,27,14,33,26.30
2009,08,27,14,34,26.30
2009,08,27,14,35,26.20
2009,08,27,14,36,26.20
2009,08,27,14,37,26.20
2009,08,27,14,38,26.20
2009,08,27,14,39,26.20
2009,08,27,14,40,26.20
2009,08,27,14,41,26.20
2009,08,27,14,42,26.20
2009,08,27,14,43,26.30
2009,08,27,14,44,26.30
2009,08,27,14,45,26.30
2009,08,27,14,46,26.40
2009,08,27,14,47,26.40
2009,08,27,14,48,26.40
2009,08,27,14,49,26.40
2009,08,27,14,50,26.40
2009,08,27,14,51,26.40
2009,08,27,14,52,26.40
2009,08,27,14,53,26.50
2009,08,27,14,54,26.50
2009,08,27,14,55,26.60
2009,08,27,14,56,26.70
2009,08,27,14,57,26.70
2009,08,27,14,58,26.70
2009,08,27,14,59,26.80
2009,08,27,15,00,26.80
2009,08,27,15,01,26.90
2009,08,27,15,02,26.90
2009,08,27,15,03,26.90
2009,08,27,15,04,27.00
2009,08,27,15,05,27.10
2009,08,27,15,06,27.10
2009,08,27,15,07,27.20
2009,08,27,15,08,27.30
2009,08,27,15,09,27.30
2009,08,27,15,10,27.40
2009,08,27,15,11,27.40
2009,08,27,15,12,27.50
2009,08,27,15,13,27.50
2009,08,27,15,14,27.60
2009,08,27,15,15,27.60
2009,08,27,15,16,27.60
2009,08,27,15,17,27.60
2009,08,27,15,18,27.70
2009,08,27,15,19,27.70
2009,08,27,15,20,27.70
2009,08,27,15,21,27.70
2009,08,27,15,22,27.60
2009,08,27,15,23,27.60
2009,08,27,15,24,27.60
2009,08,27,15,25,27.60
2009,08,27,15,26,27.60
2009,08,27,15,27,27.60
2009,08,27,15,28,27.60
2009,08,27,15,29,27.50
2009,08,27,15,30,27.60
2009,08,27,15,31,27.60
2009,08,27,15,32,27.60
2009,08,27,15,33,27.60
2009,08,27,15,34,27.60
2009,08,27,15,35,27.60
2009,08,27,15,36,27.70
2009,08,27,15,37,27.70
2009,08,27,15,38,27.70
2009,08,27,15,39,27.70
2009,08,27,15,40,27.70
2009,08,27,15,41,27.80
2009,08,27,15,42,27.80
2009,08,27,15,43,27.80
2009,08,27,15,44,27.80
2009,08,27,15,45,27.80
2009,08,27,15,46,27.80
2009,08,27,15,47,27.90
2009,08,27,15,48,27.90
2009,08,27,15,49,27.90
2009,08,27,15,50,27.90
2009,08,27,15,51,27.90
2009,08,27,15,52,28.00
2009,08,27,15,53,28.00
2009,08,27,15,54,28.10
2009,08,27,15,55,28.10
2009,08,27,15,56,28.20
2009,08,27,15,57,28.20
2009,08,27,15,58,28.20
2009,08,27,15,59,28.20
2009,08,27,16,00,28.20
2009,08,27,16,01,28.20
2009,08,27,16,02,28.30
2009,08,27,16,03,28.30
2009,08,27,16,04,28.40
2009,08,27,16,05,28.40
2009,08,27,16,06,28.40
2009,08,27,16,07,28.40
2009,08,27,16,08,28.40
2009,08,27,16,09,28.40
2009,08,27,16,10,28.30
2009,08,27,16,11,28.30
2009,08,27,16,12,28.30
2009,08,27,16,13,28.30
2009,08,27,16,14,28.30
2009,08,27,16,15,28.30
2009,08,27,16,16,28.30
2009,08,27,16,17,28.30
2009,08,27,16,18,28.30
2009,08,27,16,19,28.30
2009,08,27,16,20,28.30
2009,08,27,16,21,28.30
2009,08,27,16,22,28.30
2009,08,27,16,23,28.30
2009,08,27,16,24,28.40
2009,08,27,16,25,28.40
2009,08,27,16,26,28.40
2009,08,27,16,27,28.40
2009,08,27,16,28,28.40
2009,08,27,16,29,28.50
2009,08,27,16,30,28.50
2009,08,27,16,31,28.50
2009,08,27,16,32,28.50
2009,08,27,16,33,28.50
2009,08,27,16,34,28.60
2009,08,27,16,35,28.60
2009,08,27,16,36,28.60
2009,08,27,16,37,28.60
2009,08,27,16,38,28.70
2009,08,27,16,39,28.70
2009,08,27,16,40,28.70
2009,08,27,16,41,28.70
2009,08,27,16,42,28.70
2009,08,27,16,43,28.70
2009,08,27,16,44,28.70
2009,08,27,16,45,28.70
2009,08,27,16,46,28.70
2009,08,27,16,47,28.60
2009,08,27,16,48,28.60
2009,08,27,16,49,28.60
2009,08,27,16,50,28.50
2009,08,27,16,51,28.50
2009,08,27,16,52,28.40
2009,08,27,16,53,28.40
2009,08,27,16,54,28.40
2009,08,27,16,55,28.40
2009,08,27,16,56,28.40
2009,08,27,16,57,28.40
2009,08,27,16,58,28.40
2009,08,27,16,59,28.40
2009,08,27,17,00,28.40
2009,08,27,17,01,28.50
2009,08,27,17,02,28.60
2009,08,27,17,03,28.60
2009,08,27,17,04,28.60
2009,08,27,17,05,28.60
2009,08,27,17,06,28.50
2009,08,27,17,07,28.50
2009,08,27,17,08,28.50
2009,08,27,17,09,28.50
2009,08,27,17,10,28.50
2009,08,27,17,11,28.50
2009,08,27,17,12,28.50
2009,08,27,17,13,28.60
2009,08,27,17,14,28.60
2009,08,27,17,15,28.60
2009,08,27,17,16,28.60
2009,08,27,17,17,28.60
2009,08,27,17,18,28.70
2009,08,27,17,19,28.60
2009,08,27,17,20,28.60
2009,08,27,17,21,28.60
2009,08,27,17,22,28.60
2009,08,27,17,23,28.60
2009,08,27,17,24,28.60
2009,08,27,17,25,28.60
2009,08,27,17,26,28.60
2009,08,27,17,27,28.60
2009,08,27,17,28,28.60
2009,08,27,17,29,28.60
2009,08,27,17,30,28.70
2009,08,27,17,31,28.70
2009,08,27,17,32,28.70
2009,08,27,17,33,28.70